DB5ZQ Weather Reports


time (UTC)temp
C
wind
direction
speed
KPH
gust
KPH
rain 1hr
cm
rain 24hr
cm
rain mn
cm
humidity
%
barometer
mb
20260903165622 25 99 3.2 12.9 0.00 0.00 0.00 50 1015.1
20260903165122 26 36 4.8 9.7 0.00 0.00 0.00 50 1015.0
20260903164621 26 46 1.6 9.7 0.00 0.00 0.00 49 1014.8
20260903164121 26 67 3.2 14.5 0.00 0.00 0.00 48 1015.0
20260903163621 26 123 1.6 16.1 0.00 0.00 0.00 47 1015.0
20260903163121 26 84 3.2 14.5 0.00 0.00 0.00 47 1015.0
20260903162620 26 1 1.6 9.7 0.00 0.00 0.00 48 1014.9
20260903162120 26 78 3.2 14.5 0.00 0.00 0.00 48 1014.8
20260903161620 26 29 1.6 9.7 0.00 0.00 0.00 48 1014.7
20260903161119 26 45 0.0 8.0 0.00 0.00 0.00 48 1014.7
20260903160619 25 64 1.6 11.3 0.00 0.00 0.00 48 1014.8
20260903160119 26 4 1.6 12.9 0.00 0.00 0.00 47 1014.9
20260903155619 26 80 0.0 11.3 0.00 0.00 0.00 47 1014.8
20260903155118 26 104 8.0 11.3 0.00 0.00 0.00 47 1014.8
20260903154618 26 61 0.0 12.9 0.00 0.00 0.00 47 1014.7
20260903154118 26 119 4.8 12.9 0.00 0.00 0.00 47 1014.8
20260903153618 26 53 4.8 9.7 0.00 0.00 0.00 46 1014.8
20260903153117 26 105 3.2 12.9 0.00 0.00 0.00 46 1014.8
20260903152617 26 282 3.2 11.3 0.00 0.00 0.00 46 1014.7
20260903152117 26 94 3.2 11.3 0.00 0.00 0.00 46 1014.8
20260903151616 26 288 3.2 14.5 0.00 0.00 0.00 46 1014.9
20260903151116 26 71 6.4 14.5 0.00 0.00 0.00 45 1014.9
20260903150616 26 279 3.2 12.9 0.00 0.00 0.00 45 1015.0
20260903150116 26 104 6.4 11.3 0.00 0.00 0.00 46 1015.0
20260903145615 26 338 4.8 12.9 0.00 0.00 0.00 45 1015.0
20260903145115 26 54 4.8 11.3 0.00 0.00 0.00 46 1015.0
20260903144615 26 7 4.8 12.9 0.00 0.00 0.00 45 1014.9
20260903144114 26 12 1.6 11.3 0.00 0.00 0.00 45 1015.0
20260903143614 26 350 4.8 12.9 0.00 0.00 0.00 44 1015.0
20260903143114 26 285 1.6 22.5 0.00 0.00 0.00 44 1015.0
20260903142614 26 326 11.3 11.3 0.00 0.00 0.00 44 1014.9
20260903142113 26 150 4.8 16.1 0.00 0.00 0.00 44 1014.9
20260903141613 26 74 4.8 16.1 0.00 0.00 0.00 44 1014.8
20260903141113 26 81 8.0 14.5 0.00 0.00 0.00 44 1014.8
20260903140614 26 122 8.0 20.9 0.00 0.00 0.00 44 1014.9
20260903140112 26 324 1.6 11.3 0.00 0.00 0.00 44 1014.9
20260903135612 26 9 3.2 16.1 0.00 0.00 0.00 44 1014.9
20260903135112 26 37 1.6 14.5 0.00 0.00 0.00 44 1015.0
20260903134611 26 306 1.6 14.5 0.00 0.00 0.00 46 1015.0
20260903134111 25 15 3.2 8.0 0.00 0.00 0.00 47 1015.0
20260903133611 25 75 1.6 9.7 0.00 0.00 0.00 47 1015.0
20260903133110 25 212 3.2 11.3 0.00 0.00 0.00 46 1015.1
20260903132610 25 85 9.7 12.9 0.00 0.00 0.00 46 1015.1
20260903132110 25 45 1.6 19.3 0.00 0.00 0.00 46 1015.1
20260903131610 25 322 3.2 11.3 0.00 0.00 0.00 47 1015.1
20260903131109 25 119 3.2 16.1 0.00 0.00 0.00 47 1015.1
20260903130609 25 139 3.2 14.5 0.00 0.00 0.00 46 1015.1
20260903130109 25 91 8.0 14.5 0.00 0.00 0.00 47 1015.2
20260903125608 25 322 6.4 14.5 0.00 0.00 0.00 47 1015.2
20260903125108 25 66 4.8 17.7 0.00 0.00 0.00 47 1015.2
20260903124608 25 64 6.4 20.9 0.00 0.00 0.00 46 1015.3
20260903124108 25 43 3.2 14.5 0.00 0.00 0.00 46 1015.2
20260903123607 25 0 9.7 19.3 0.00 0.00 0.00 46 1015.3
20260903123107 25 8 8.0 17.7 0.00 0.00 0.00 45 1015.2
20260903122607 25 336 11.3 17.7 0.00 0.00 0.00 45 1015.1
20260903122106 25 126 3.2 14.5 0.00 0.00 0.00 47 1015.0
20260903121606 25 125 3.2 22.5 0.00 0.00 0.00 47 1015.2
20260903121106 25 120 4.8 11.3 0.00 0.00 0.00 48 1015.3
20260903120606 24 64 0.0 12.9 0.00 0.00 0.00 48 1015.3
20260903120105 24 87 0.0 20.9 0.00 0.00 0.00 48 1015.4
20260903115605 25 78 3.2 8.0 0.00 0.00 0.00 48 1015.6
20260903115105 25 63 1.6 17.7 0.00 0.00 0.00 47 1015.5
20260903114604 25 56 0.0 8.0 0.00 0.00 0.00 48 1015.5
20260903114104 25 119 3.2 8.0 0.00 0.00 0.00 49 1015.6
20260903113604 24 142 4.8 6.4 0.00 0.00 0.00 49 1015.5
20260903113104 25 104 0.0 4.8 0.00 0.00 0.00 49 1015.6
20260903112603 25 331 3.2 8.0 0.00 0.00 0.00 49 1015.6
20260903112103 25 352 1.6 6.4 0.00 0.00 0.00 48 1015.7
20260903111603 25 45 4.8 9.7 0.00 0.00 0.00 49 1015.8
20260903111102 25 18 1.6 11.3 0.00 0.00 0.00 48 1015.8
20260903110602 25 25 0.0 6.4 0.00 0.00 0.00 49 1016.1
20260903105602 23 281 3.2 6.4 0.00 0.00 0.00 53 1015.9
20260903105101 23 32 0.0 8.0 0.00 0.00 0.00 55 1016.0
20260903104601 22 60 0.0 8.0 0.00 0.00 0.00 55 1016.1
20260903104101 22 307 0.0 8.0 0.00 0.00 0.00 56 1016.2
20260903103600 22 5 4.8 4.8 0.00 0.00 0.00 56 1016.2
20260903103100 22 9 1.6 6.4 0.00 0.00 0.00 57 1016.3
20260903102600 21 56 0.0 6.4 0.00 0.00 0.00 57 1016.3
20260903102100 21 43 0.0 4.8 0.00 0.00 0.00 57 1016.4
20260903101559 21 46 0.0 6.4 0.00 0.00 0.00 57 1016.4
20260903101059 21 253 0.0 8.0 0.00 0.00 0.00 57 1016.6
20260903100559 21 46 0.0 6.4 0.00 0.00 0.00 57 1016.8
20260903100059 21 309 4.8 6.4 0.00 0.00 0.00 57 1016.7
20260903095558 21 341 0.0 4.8 0.00 0.00 0.00 57 1016.8
20260903095058 21 123 3.2 6.4 0.00 0.00 0.00 57 1016.8
20260903094558 21 345 1.6 14.5 0.00 0.00 0.00 57 1016.9
20260903094057 21 142 1.6 8.0 0.00 0.00 0.00 57 1016.9
20260903093557 21 219 0.0 6.4 0.00 0.00 0.00 57 1016.9
20260903093057 21 21 1.6 12.9 0.00 0.00 0.00 57 1016.9
20260903092557 21 84 6.4 9.7 0.00 0.00 0.00 56 1017.0
20260903092056 21 302 1.6 12.9 0.00 0.00 0.00 56 1017.1
20260903091556 21 358 8.0 11.3 0.00 0.00 0.00 57 1016.9
20260903091056 21 210 1.6 12.9 0.00 0.00 0.00 58 1016.9
20260903090555 20 323 1.6 12.9 0.00 0.00 0.00 58 1016.8
20260903090055 20 116 8.0 12.9 0.00 0.00 0.00 58 1016.9
20260903085555 20 330 3.2 8.0 0.00 0.00 0.00 59 1017.0
20260903085055 20 302 3.2 11.3 0.00 0.00 0.00 60 1017.1
20260903084554 20 315 0.0 8.0 0.00 0.00 0.00 61 1017.2
20260903084054 20 357 1.6 3.2 0.00 0.00 0.00 62 1017.1
20260903083554 20 333 3.2 8.0 0.00 0.00 0.00 62 1017.1
20260903083053 20 334 1.6 11.3 0.00 0.00 0.00 62 1017.0
20260903082553 20 358 6.4 11.3 0.00 0.00 0.00 61 1017.2
20260903082053 20 324 1.6 8.0 0.00 0.00 0.00 62 1017.2
20260903081553 20 296 1.6 6.4 0.00 0.00 0.00 62 1017.2
20260903081052 19 320 0.0 8.0 0.00 0.00 0.00 63 1017.1
20260903080552 19 291 4.8 4.8 0.00 0.00 0.00 64 1017.2
20260903080052 19 275 0.0 1.6 0.00 0.00 0.00 65 1017.2
20260903075551 19 286 0.0 3.2 0.00 0.00 0.00 65 1017.0
20260903075051 19 25 1.6 4.8 0.00 0.00 0.00 65 1017.1
20260903074551 19 344 0.0 3.2 0.00 0.00 0.00 65 1017.0
20260903074051 18 188 0.0 4.8 0.00 0.00 0.00 65 1017.0
20260903073550 18 127 0.0 3.2 0.00 0.00 0.00 65 1017.1
20260903073050 18 298 1.6 4.8 0.00 0.00 0.00 65 1017.1
20260903072550 18 258 0.0 4.8 0.00 0.00 0.00 66 1017.2
20260903072049 18 343 1.6 6.4 0.00 0.00 0.00 66 1017.0
20260903071549 18 0 0.0 4.8 0.00 0.00 0.00 66 1017.2
20260903071049 18 229 1.6 3.2 0.00 0.00 0.00 66 1017.2
20260903070549 18 281 0.0 3.2 0.00 0.00 0.00 67 1017.2
20260903070048 18 232 1.6 1.6 0.00 0.00 0.00 67 1017.3
20260903065548 18 0 0.0 3.2 0.00 0.00 0.00 67 1017.2
20260903065048 18 292 3.2 8.0 0.00 0.00 0.00 67 1017.2
20260903064547 18 234 3.2 4.8 0.00 0.00 0.00 67 1017.1
20260903064047 18 220 0.0 6.4 0.00 0.00 0.00 68 1017.1
20260903063547 18 219 0.0 4.8 0.00 0.00 0.00 68 1017.2
20260903063047 18 4 0.0 0.0 0.00 0.00 0.00 69 1017.1
20260903062546 17 4 0.0 3.2 0.00 0.00 0.00 69 1017.2
20260903062046 17 352 0.0 4.8 0.00 0.00 0.00 70 1017.3
20260903061546 17 352 0.0 4.8 0.00 0.00 0.00 70 1017.4
20260903061045 17 77 0.0 0.0 0.00 0.00 0.00 70 1017.5
20260903060545 17 77 0.0 0.0 0.00 0.00 0.00 70 1017.5
20260903060045 17 77 0.0 1.6 0.00 0.00 0.00 70 1017.5
20260903055545 17 298 0.0 1.6 0.00 0.00 0.00 70 1017.4
20260903055044 17 327 0.0 3.2 0.00 0.00 0.00 70 1017.2
20260903054544 17 333 1.6 4.8 0.00 0.00 0.00 70 1017.1
20260903054044 17 151 0.0 4.8 0.00 0.00 0.00 70 1016.8
20260903053543 17 340 0.0 3.2 0.00 0.00 0.00 70 1016.9
20260903053043 17 11 0.0 3.2 0.00 0.00 0.00 70 1016.8
20260903052543 17 201 0.0 3.2 0.00 0.00 0.00 70 1016.8
20260903052043 17 347 0.0 3.2 0.00 0.00 0.00 70 1017.0
20260903051542 17 347 1.6 4.8 0.00 0.00 0.00 70 1017.1
20260903051042 17 307 1.6 4.8 0.00 0.00 0.00 70 1017.1
20260903050542 17 15 0.0 1.6 0.00 0.00 0.00 70 1017.2
20260903050042 17 337 0.0 3.2 0.00 0.00 0.00 71 1017.2
20260903045541 17 331 0.0 6.4 0.00 0.00 0.00 71 1017.2
20260903045041 17 1 0.0 4.8 0.00 0.00 0.00 71 1017.1
20260903044541 16 327 0.0 0.0 0.00 0.00 0.00 71 1017.2
20260903044040 17 7 0.0 0.0 0.00 0.00 0.00 71 1017.1
20260903043540 17 7 0.0 0.0 0.00 0.00 0.00 71 1017.1
20260903043040 17 7 0.0 4.8 0.00 0.00 0.00 71 1017.1
20260903042540 17 59 0.0 0.0 0.00 0.00 0.00 70 1017.1
20260903042039 17 59 0.0 3.2 0.00 0.00 0.00 70 1017.1
20260903041539 17 98 0.0 0.0 0.00 0.00 0.00 70 1017.0
20260903041039 17 98 0.0 0.0 0.00 0.00 0.00 70 1017.1
20260903040538 17 239 0.0 0.0 0.00 0.00 0.00 70 1017.0
20260903040038 17 239 0.0 0.0 0.00 0.00 0.00 70 1017.0
20260903035538 17 239 0.0 0.0 0.00 0.00 0.00 70 1016.9
20260903035038 17 239 0.0 0.0 0.00 0.00 0.00 70 1016.8
20260903034537 17 208 0.0 0.0 0.00 0.00 0.00 70 1016.8
20260903034037 17 208 0.0 1.6 0.00 0.00 0.00 70 1016.8
20260903033537 17 67 0.0 0.0 0.00 0.00 0.00 70 1016.8
20260903033036 17 67 0.0 0.0 0.00 0.00 0.00 70 1017.0
20260903032536 17 67 0.0 0.0 0.00 0.00 0.00 69 1017.0
20260903032036 17 67 0.0 0.0 0.00 0.00 0.00 69 1016.9
20260903031536 17 67 0.0 0.0 0.00 0.00 0.00 69 1017.1
20260903031035 17 67 0.0 0.0 0.00 0.00 0.00 68 1017.1
20260903030535 17 67 0.0 0.0 0.00 0.00 0.00 68 1017.3
20260903030035 17 67 0.0 0.0 0.00 0.00 0.00 68 1017.4
20260903025534 17 67 0.0 0.0 0.00 0.00 0.00 68 1017.4
20260903025034 17 67 0.0 0.0 0.00 0.00 0.00 67 1017.4
20260903024534 17 67 0.0 0.0 0.00 0.00 0.00 67 1017.4
20260903024034 17 67 0.0 0.0 0.00 0.00 0.00 67 1017.3
20260903023533 17 67 0.0 0.0 0.00 0.00 0.00 67 1017.2
20260903023033 17 67 0.0 0.0 0.00 0.00 0.00 66 1017.1
20260903022533 17 67 0.0 0.0 0.00 0.00 0.00 66 1017.1
20260903022032 17 67 0.0 0.0 0.00 0.00 0.00 66 1017.2
20260903021532 17 67 0.0 0.0 0.00 0.00 0.00 65 1017.3
20260903021032 18 67 0.0 0.0 0.00 0.00 0.00 65 1017.3
20260903020532 18 67 0.0 0.0 0.00 0.00 0.00 65 1017.2
20260903020031 18 67 0.0 0.0 0.00 0.00 0.00 65 1017.3
20260903015531 18 67 0.0 0.0 0.00 0.00 0.00 65 1017.3
20260903015031 18 67 0.0 0.0 0.00 0.00 0.00 64 1017.3
20260903014530 18 67 0.0 0.0 0.00 0.00 0.00 64 1017.3
20260903014030 18 67 0.0 0.0 0.00 0.00 0.00 64 1017.2
20260903013530 18 67 0.0 0.0 0.00 0.00 0.00 64 1017.2
20260903013030 18 67 0.0 0.0 0.00 0.00 0.00 64 1017.2
20260903012529 18 67 0.0 0.0 0.00 0.00 0.00 63 1017.3
20260903012029 18 67 0.0 0.0 0.00 0.00 0.00 63 1017.3
20260903011529 18 67 0.0 0.0 0.00 0.00 0.00 63 1017.4
20260903011028 18 67 0.0 0.0 0.00 0.00 0.00 63 1017.4
20260903010528 18 67 0.0 0.0 0.00 0.00 0.00 63 1017.4
20260903010028 18 67 0.0 0.0 0.00 0.00 0.00 63 1017.4
20260903005528 18 67 0.0 0.0 0.00 0.00 0.00 63 1017.4
20260903005027 18 67 0.0 0.0 0.00 0.00 0.00 63 1017.4
20260903004527 18 67 0.0 0.0 0.00 0.00 0.00 63 1017.4
20260903004027 18 67 0.0 0.0 0.00 0.00 0.00 63 1017.4
20260903003527 18 67 0.0 0.0 0.00 0.00 0.00 63 1017.4
20260903003026 18 67 0.0 0.0 0.00 0.00 0.00 63 1017.4
20260903002526 18 67 0.0 0.0 0.00 0.00 0.00 63 1017.4
20260903002026 18 67 0.0 0.0 0.00 0.00 0.00 62 1017.5
20260903001525 18 67 0.0 0.0 0.00 0.00 0.00 62 1017.5
20260903001025 18 67 0.0 0.0 0.00 0.00 0.00 63 1017.4
20260903000525 18 67 0.0 0.0 0.00 0.00 0.00 63 1017.4
20260903000025 18 67 0.0 0.0 0.00 0.00 0.00 63 1017.4
20260902235524 18 67 0.0 0.0 0.00 0.00 0.00 63 1017.5
20260902235024 18 67 0.0 0.0 0.00 0.00 0.00 62 1017.5
20260902234524 19 67 0.0 0.0 0.00 0.00 0.00 62 1017.5
20260902234023 19 67 0.0 0.0 0.00 0.00 0.00 62 1017.5
20260902233523 19 67 0.0 0.0 0.00 0.00 0.00 62 1017.6
20260902233023 19 67 0.0 0.0 0.00 0.00 0.00 63 1017.8
20260902232522 19 67 0.0 0.0 0.00 0.00 0.00 63 1017.7
20260902232022 19 67 0.0 0.0 0.00 0.00 0.00 62 1017.7
20260902231522 19 67 0.0 0.0 0.00 0.00 0.00 62 1017.7
20260902231022 19 67 0.0 0.0 0.00 0.00 0.00 61 1017.7
20260902230521 19 67 0.0 0.0 0.00 0.00 0.00 61 1017.7
20260902230021 19 67 0.0 0.0 0.00 0.00 0.00 61 1017.6
20260902225521 20 67 0.0 0.0 0.00 0.00 0.00 61 1017.6
20260902225021 20 67 0.0 0.0 0.00 0.00 0.00 61 1017.6
20260902224520 20 67 0.0 0.0 0.00 0.00 0.00 61 1017.7
20260902224020 20 67 0.0 0.0 0.00 0.00 0.00 60 1017.6
20260902223520 20 67 0.0 0.0 0.00 0.00 0.00 60 1017.6
20260902223019 20 67 0.0 0.0 0.00 0.00 0.00 60 1017.5
20260902222519 20 67 0.0 0.0 0.00 0.00 0.00 59 1017.6
20260902222019 20 67 0.0 0.0 0.00 0.00 0.00 59 1017.6
20260902221519 20 67 0.0 0.0 0.00 0.00 0.00 59 1017.6
20260902221018 20 67 0.0 0.0 0.00 0.00 0.00 59 1017.6
20260902220518 20 67 0.0 0.0 0.00 0.00 0.00 58 1017.5
20260902220018 20 67 0.0 0.0 0.00 0.00 0.00 58 1017.6
20260902215517 20 67 0.0 0.0 0.00 0.00 0.00 57 1017.5
20260902215017 21 67 0.0 0.0 0.00 0.00 0.00 57 1017.5
20260902214517 21 67 0.0 0.0 0.00 0.00 0.00 57 1017.4
20260902214017 21 67 0.0 0.0 0.00 0.00 0.00 56 1017.3
20260902213516 21 67 0.0 0.0 0.00 0.00 0.00 56 1017.4
20260902213016 21 67 0.0 0.0 0.00 0.00 0.00 55 1017.3
20260902212516 21 67 0.0 0.0 0.00 0.00 0.00 55 1017.2
20260902212015 21 67 0.0 0.0 0.00 0.00 0.00 54 1017.2
20260902211515 21 67 0.0 0.0 0.00 0.00 0.00 54 1017.2
20260902211015 21 67 0.0 0.0 0.00 0.00 0.00 54 1017.2
20260902210515 21 67 0.0 0.0 0.00 0.00 0.00 53 1017.2
20260902210014 21 67 0.0 0.0 0.00 0.00 0.00 52 1017.3
20260902205514 21 67 0.0 0.0 0.00 0.00 0.00 52 1017.3
20260902205014 22 67 0.0 0.0 0.00 0.00 0.00 52 1017.3
20260902204513 22 67 0.0 0.0 0.00 0.00 0.00 52 1017.3
20260902204013 22 67 0.0 0.0 0.00 0.00 0.00 51 1017.3
20260902203513 22 67 0.0 0.0 0.00 0.00 0.00 51 1017.3
20260902203013 22 67 0.0 0.0 0.00 0.00 0.00 50 1017.3
20260902202512 22 67 0.0 0.0 0.00 0.00 0.00 50 1017.3
20260902202012 22 67 0.0 0.0 0.00 0.00 0.00 49 1017.3
20260902201512 22 67 0.0 0.0 0.00 0.00 0.00 49 1017.3
20260902201011 22 67 0.0 0.0 0.00 0.00 0.00 49 1017.3
20260902200511 22 67 0.0 0.0 0.00 0.00 0.00 48 1017.3
20260902200011 22 67 0.0 0.0 0.00 0.00 0.00 48 1017.4
20260902195511 22 67 0.0 0.0 0.00 0.00 0.00 47 1017.3
20260902195010 23 67 0.0 0.0 0.00 0.00 0.00 47 1017.3
20260902194510 23 67 0.0 0.0 0.00 0.00 0.00 46 1017.3
20260902194010 23 67 0.0 0.0 0.00 0.00 0.00 46 1017.3
20260902193509 23 67 0.0 0.0 0.00 0.00 0.00 46 1017.3
20260902193009 23 67 0.0 0.0 0.00 0.00 0.00 45 1017.3
20260902192509 23 67 0.0 0.0 0.00 0.00 0.00 45 1017.2
20260902192009 23 67 0.0 0.0 0.00 0.00 0.00 45 1017.1
20260902191508 23 67 0.0 0.0 0.00 0.00 0.00 45 1017.0
20260902191008 23 67 0.0 0.0 0.00 0.00 0.00 45 1017.0
20260902190508 23 67 0.0 0.0 0.00 0.00 0.00 45 1016.9
20260902190007 23 67 0.0 0.0 0.00 0.00 0.00 44 1016.9
20260902185507 23 67 0.0 0.0 0.00 0.00 0.00 44 1016.8
20260902185007 23 67 0.0 1.6 0.00 0.00 0.00 44 1016.8
20260902184507 23 289 0.0 0.0 0.00 0.00 0.00 44 1016.8
20260902184006 24 289 0.0 0.0 0.00 0.00 0.00 43 1016.7
20260902183506 24 289 0.0 0.0 0.00 0.00 0.00 44 1016.7
20260902183006 24 289 0.0 0.0 0.00 0.00 0.00 43 1016.7
20260902182506 23 289 0.0 0.0 0.00 0.00 0.00 43 1016.6
20260902182005 23 289 0.0 0.0 0.00 0.00 0.00 43 1016.6
20260902181505 24 289 0.0 3.2 0.00 0.00 0.00 43 1016.6
20260902181005 24 250 0.0 1.6 0.00 0.00 0.00 42 1016.5
20260902180504 25 267 0.0 0.0 0.00 0.00 0.00 42 1016.5
20260902180006 25 99 0.0 3.2 0.00 0.00 0.00 41 1016.4
20260902175504 25 239 0.0 1.6 0.00 0.00 0.00 40 1016.4
20260902175004 25 66 0.0 0.0 0.00 0.00 0.00 39 1016.2
20260902174503 25 66 0.0 6.4 0.00 0.00 0.00 39 1016.3
20260902174003 25 150 0.0 4.8 0.00 0.00 0.00 39 1016.3
20260902173503 26 87 0.0 4.8 0.00 0.00 0.00 38 1016.2
20260902173002 26 90 0.0 8.0 0.00 0.00 0.00 37 1016.2
20260902172502 26 170 0.0 4.8 0.00 0.00 0.00 37 1016.3
20260902172002 26 101 0.0 3.2 0.00 0.00 0.00 36 1016.2
20260902171502 27 57 0.0 3.2 0.00 0.00 0.00 35 1016.1
20260902171001 27 63 0.0 6.4 0.00 0.00 0.00 34 1016.2
20260902170501 27 77 0.0 8.0 0.00 0.00 0.00 34 1016.2
20260902170001 27 272 0.0 3.2 0.00 0.00 0.00 33 1016.2